Location: Budapest
(47.4979°N, 19.0402°E)
Time: 19:48:37
(UTC+02:00)

Tiangong 1 - Pass Details

Date: 13 October 2017
Orbit: 293 x 320 km, 42.8° (Epoch: 21 October)

Event Time Altitude Azimuth Distance (km) Brightness Sun altitude
Rises 19:51:38 0° 264° (W) 2,039 6.1 -19.7°
Reaches altitude 10° 19:54:11 10° 238° (WSW) 1,201 4.2 -20.1°
Enters shadow 19:55:26 14° 210° (SSW) 994 3.4 -20.3°
